Location: *
(37.5724°S, 58.0067°E)
Time: 10:32:38
(UTC+00:00)

USA 229 DEB - Pass Details

Date: 06 December 2021
Orbit: 943 x 1269 km, 63.4° (Epoch: 14 January)

Event Time Altitude Azimuth Distance (km) Brightness Sun altitude
Rises 19:13:18 0° 257° (WSW) 4,157 7.1 -28.9°
Reaches altitude 10° 19:18:32 10° 228° (SW) 3,127 6.8 -29.1°
Maximum altitude 19:21:15 12° 206° (SSW) 2,932 6.8 -29.2°
Drops below altitude 10° 19:23:54 10° 184° (S) 3,046 7.0 -29.3°
Sets 19:28:50 0° 154° (SSE) 3,921 7.5 -29.4°
